This is the latest recevied weather packets stored in our database for station/object KA7EII-13. If no packets are shown the sender has not sent any weather packets the latest 10 day(s).
| Time | Temp. | Humidity | Pressure | Rain* | Wind** | Luminosity | Snow |
|---|---|---|---|---|---|---|---|
| 1777911912 | 17.22° C | 40% | 1099.1 hPa | 0 mm | - | 627 W/m² | - |
| 1777911608 | 17.22° C | 37% | 1099.2 hPa | 0 mm | - | 638 W/m² | - |
| 1777911304 | 18.33° C | 36% | 1099.3 hPa | 0 mm | - | 614 W/m² | - |
| 1777911002 | 17.22° C | 42% | 1099.1 hPa | 0 mm | - | 615 W/m² | - |
| 1777910700 | 17.22° C | 40% | 1099.1 hPa | 0 mm | - | 583 W/m² | - |
| 1777910395 | 17.22° C | 42% | 1099.2 hPa | 0 mm | - | 559 W/m² | - |
| 1777910092 | 16.67° C | 43% | 1099.2 hPa | 0 mm | - | 533 W/m² | - |
| 1777909790 | 16.11° C | 40% | 1099.2 hPa | 0 mm | - | 513 W/m² | - |
| 1777909487 | 16.11° C | 40% | 1099.2 hPa | 0 mm | - | 508 W/m² | - |
| 1777909184 | 16.11° C | 42% | 1099.1 hPa | 0 mm | - | 484 W/m² | - |
| 1777908882 | 15.56° C | 42% | 1099.3 hPa | 0 mm | - | 421 W/m² | - |
| 1777908580 | 15.56° C | 42% | 1099.3 hPa | 0 mm | - | 395 W/m² | - |
| 1777908276 | 15° C | 43% | 1099.3 hPa | 0 mm | - | 382 W/m² | - |
| 1777907972 | 15° C | 43% | 1099.1 hPa | 0 mm | - | 375 W/m² | - |
| 1777907668 | 15.56° C | 41% | 1099.1 hPa | 0 mm | - | 363 W/m² | - |
| 1777907363 | 15.56° C | 44% | 1099.1 hPa | 0 mm | - | 335 W/m² | - |
| 1777907060 | 15° C | 45% | 1099.1 hPa | 0 mm | - | 308 W/m² | - |
| 1777906758 | 13.33° C | 46% | 1099.3 hPa | 0 mm | - | 319 W/m² | - |
| 1777906454 | 13.89° C | 47% | 1099.1 hPa | 0 mm | - | 332 W/m² | - |
| 1777906151 | 12.78° C | 50% | 1099.3 hPa | 0 mm | - | 304 W/m² | - |
| 1777905848 | 12.78° C | 50% | 1099.3 hPa | 0 mm | - | 271 W/m² | - |
| 1777905545 | 12.22° C | 52% | 1099.4 hPa | 0 mm | - | 250 W/m² | - |
| 1777905241 | 11.67° C | 51% | 1099.2 hPa | 0 mm | - | 246 W/m² | - |
| 1777904939 | 11.11° C | 54% | 1099.2 hPa | 0 mm | - | 217 W/m² | - |
| 1777904636 | 10° C | 57% | 1099.4 hPa | 0 mm | - | 204 W/m² | - |
* Rain latest hour (hover to see other rain measurements)
** Current wind speed in m/s (hover to see current wind gust speed)